Location: Newark
(44.5425°N, 10.7801°E)
Time: 16:48:42
(UTC+00:00)

N. Korean satellite - Pass Details

Date: 31 January 2020
Orbit: 456 x 506 km, 97.2° (Epoch: 17 February)

Event Time Altitude Azimuth Distance (km) Brightness Sun altitude
Rises 04:42:51 0° 19° (NNE) 2,560 10.4 -20.5°
Reaches altitude 10° 04:45:00 10° 27° (NNE) 1,683 9.5 -20.2°
Maximum altitude 04:48:26 41° 98° (E) 729 7.9 -19.5°
Drops below altitude 10° 04:51:54 10° 170° (S) 1,694 9.5 -18.9°
Sets 04:54:04 0° 178° (S) 2,578 10.4 -18.5°
